World > North America > United States > Nevada

Lane, Nevada Regional Weather

Lat: 39.25N, Lon: 114.88W
Wx Zone: NVZ035
Feedback

Lane, NV Regional Weather

Expires:201910161900;;804713
ASUS45 KREV 161810
RWRNV 
NEVADA REGIONAL WEATHER ROUNDUP
NATIONAL WEATHER SERVICE RENO NV
1100 AM PDT WED OCT 16 2019

NOTE: "FAIR" INDICATES FEW OR NO CLOUDS BELOW 12,000 FEET WITH NO
SIGNIFICANT WEATHER AND/OR OBSTRUCTIONS TO VISIBILITY.


NVZ035-037-161900-
CENTRAL NEVADA
  
CITY           SKY/WX    TMP DP  RH WIND       PRES   REMARKS
ELY            SUNNY     68   7   9 SE12      30.23F                  
6HR MIN TEMP:  28; 6HR MAX TEMP:  69;                                

EUREKA           N/A     67   4   8 S9        30.18F                  
6HR MIN TEMP:  30; 6HR MAX TEMP:  68;                                

$$


SKY/WX - Weather  TMP - Temperature  DP - Dew Point  RH - Relative Humidity
WIND - Wind Direction/Speed PRES - Barometric Pressure VSB - Visibility
WCI - Wind Chill Index E13G22 Wind - East Wind 13 mph/Gusts of 22 mph